Regional Weather Roundup
Issued by NWS Goodland, KS

Home | Current Version | Previous Version | Graphics & Text | Print | Product List | Glossary On
Versions: 1 2 3 4 5 6 7 8 9 10 11 12 13 14 15 16 17 18 19 20 21 22 23 24 25 26 27 28 29 30 31 32 33 34 35 36 37 38 39 40 41 42 43 44 45 46 47 48 49 50
000
ASUS43 KGLD 220808
RWRGLD

GOODLAND FORECAST AREA HOURLY WEATHER ROUNDUP
NATIONAL WEATHER SERVICE GOODLAND KS
100 AM MST SAT NOV 22 2014

...OFFICIAL OBSERVATIONS...

CITY           SKY/WX    TMP DP  RH WIND       PRES   REMARKS
GOODLAND KS    CLEAR     32  19  58 SW9       29.93F
HILL CITY KS   FAIR      26  26 100 CALM      29.93F FOG
IMPERIAL NEB   CLEAR     27  17  66 SW7       29.89F
MCCOOK NEB     CLEAR     27  24  89 SW8       29.90S
AKRON CO       CLEAR     38  21  50 SW13      29.91F
BURLINGTON CO  CLEAR     31  18  58 SW9       29.94F
LIMON CO       CLEAR     18  14  84 N6        29.96F
$$

...UNOFFICIAL OBSERVATIONS...

CITY           SKY/WX    TMP DP  RH WIND       PRES   REMARKS
COLBY KS       CLEAR     27  25  93 W9        29.93S
GOVE KS          N/A     33  32  96 MISG        N/A
NORTON KS      FOG       25  23  93 SW7       29.89F VSB 3/4
SHARON SPRINGS   N/A     29  23  77 SW10        N/A  WCI  20
TRIBUNE KS     PTCLDY    32  28  86 W12       29.97F
TRENTON NEB      N/A     32  32 100 W5          N/A
YUMA CO          N/A     30  18  61 SW7         N/A
$$


USA.gov is the U.S. government's official web portal to all federal, state and local government web resources and services.